Location: *
(6.0000°S, 32.3997°W)
Time: 16:46:18
(UTC+00:00)

SL-24 R/B - RUBIN 2 - Pass Details

Date: 01 April 2020
Orbit: 569 x 1026 km, 64.6° (Epoch: 25 May)

Event Time Altitude Azimuth Distance (km) Brightness Sun altitude
Rises 21:11:18 0° 187° (S) 2,826 7.0 -14.9°
Reaches altitude 10° 21:13:37 10° 178° (S) 1,960 6.1 -15.5°
Maximum altitude 21:17:38 35° 112° (ESE) 1,043 4.2 -16.5°
Enters shadow 21:19:00 29° 77° (ENE) 1,209 4.5 -16.8°
